Time,TemperatureF,DewpointF,PressureIn,WindDirection,WindDirectionDegrees,WindSpeedMPH,WindSpeedGustMPH,Humidity,HourlyPrecipIn,Conditions,Clouds,dailyrainin,SoftwareType,DateUTC
2013-08-10 00:03:00,73.3,71.0,29.71,West,259,0.0,-999.0,93,-99.99,,,1.26,weatherlink.com 1.10,2013-08-10 04:03:00,
2013-08-10 00:18:00,73.2,71.0,29.71,West,260,2.0,-999.0,93,-99.99,,,1.26,weatherlink.com 1.10,2013-08-10 04:18:00,
2013-08-10 00:33:00,73.2,71.0,29.71,WSW,246,0.0,-999.0,93,-99.99,,,0.00,weatherlink.com 1.10,2013-08-10 04:33:00,
2013-08-10 00:48:00,73.0,71.0,29.71,West,267,0.0,-999.0,93,-99.99,,,0.00,weatherlink.com 1.10,2013-08-10 04:48:00,
2013-08-10 01:03:00,72.8,71.0,29.71,WSW,247,2.0,-999.0,93,-99.99,,,0.00,weatherlink.com 1.10,2013-08-10 05:03:00,
2013-08-10 01:18:00,72.7,71.0,29.70,WSW,249,1.0,-999.0,93,-99.99,,,0.00,weatherlink.com 1.10,2013-08-10 05:18:00,
2013-08-10 01:33:00,72.7,71.0,29.70,West,270,0.0,-999.0,93,-99.99,,,0.00,weatherlink.com 1.10,2013-08-10 05:33:00,
2013-08-10 01:48:00,72.5,70.0,29.71,West,281,0.0,-999.0,93,-99.99,,,0.00,weatherlink.com 1.10,2013-08-10 05:48:00,
2013-08-10 02:03:00,72.5,70.0,29.71,NNW,329,0.0,-999.0,93,-99.99,,,0.00,weatherlink.com 1.10,2013-08-10 06:03:00,
2013-08-10 02:18:00,72.5,70.0,29.71,NNW,345,0.0,-999.0,93,-99.99,,,0.00,weatherlink.com 1.10,2013-08-10 06:18:00,
2013-08-10 02:33:00,72.7,71.0,29.71,NW,326,0.0,-999.0,93,-99.99,,,0.00,weatherlink.com 1.10,2013-08-10 06:33:00,
2013-08-10 02:48:00,72.7,71.0,29.72,NW,319,1.0,-999.0,93,-99.99,,,0.00,weatherlink.com 1.10,2013-08-10 06:48:00,
2013-08-10 03:03:00,72.7,71.0,29.72,WSW,254,0.0,-999.0,93,-99.99,,,0.00,weatherlink.com 1.10,2013-08-10 07:03:00,
2013-08-10 03:18:00,72.5,70.0,29.72,NNE,13,1.0,-999.0,93,-99.99,,,0.00,weatherlink.com 1.10,2013-08-10 07:18:00,
2013-08-10 03:33:00,72.5,70.0,29.72,NNE,14,0.0,-999.0,93,-99.99,,,0.00,weatherlink.com 1.10,2013-08-10 07:33:00,
2013-08-10 03:48:00,72.3,70.0,29.72,NNE,13,0.0,-999.0,93,-99.99,,,0.00,weatherlink.com 1.10,2013-08-10 07:48:00,
2013-08-10 04:03:00,72.0,70.0,29.73,North,7,0.0,-999.0,93,-99.99,,,0.00,weatherlink.com 1.10,2013-08-10 08:03:00,
2013-08-10 04:18:00,71.8,70.0,29.73,North,358,0.0,-999.0,93,-99.99,,,0.00,weatherlink.com 1.10,2013-08-10 08:18:00,
2013-08-10 04:33:00,71.6,70.0,29.73,North,350,0.0,-999.0,93,-99.99,,,0.00,weatherlink.com 1.10,2013-08-10 08:33:00,
2013-08-10 04:48:00,71.3,69.0,29.73,NW,325,1.0,-999.0,93,-99.99,,,0.00,weatherlink.com 1.10,2013-08-10 08:48:00,
2013-08-10 05:03:00,70.9,69.0,29.74,NNE,12,0.0,-999.0,93,-99.99,,,0.00,weatherlink.com 1.10,2013-08-10 09:03:00,
2013-08-10 05:18:00,70.6,69.0,29.74,North,356,0.0,-999.0,93,-99.99,,,0.00,weatherlink.com 1.10,2013-08-10 09:18:00,
2013-08-10 05:34:00,70.3,68.0,29.74,NNE,20,0.0,-999.0,92,-99.99,,,0.00,weatherlink.com 1.10,2013-08-10 09:34:00,
2013-08-10 05:49:00,70.1,68.0,29.75,NNE,22,0.0,-999.0,92,-99.99,,,0.00,weatherlink.com 1.10,2013-08-10 09:49:00,
2013-08-10 06:04:00,69.6,67.0,29.76,North,5,0.0,-999.0,92,-99.99,,,0.00,weatherlink.com 1.10,2013-08-10 10:04:00,
2013-08-10 06:19:00,69.3,67.0,29.76,North,10,2.0,-999.0,91,-99.99,,,0.00,weatherlink.com 1.10,2013-08-10 10:19:00,
2013-08-10 06:34:00,68.9,66.0,29.76,NNW,341,0.0,-999.0,90,-99.99,,,0.00,weatherlink.com 1.10,2013-08-10 10:34:00,
2013-08-10 06:49:00,68.9,66.0,29.77,North,353,2.0,-999.0,89,-99.99,,,0.00,weatherlink.com 1.10,2013-08-10 10:49:00,
2013-08-10 07:04:00,69.3,65.0,29.77,North,7,1.0,-999.0,87,-99.99,,,0.00,weatherlink.com 1.10,2013-08-10 11:04:00,
2013-08-10 07:19:00,69.3,65.0,29.78,NNE,14,0.0,-999.0,86,-99.99,,,0.00,weatherlink.com 1.10,2013-08-10 11:19:00,
2013-08-10 07:34:00,69.8,64.0,29.78,NNW,342,2.0,-999.0,82,-99.99,,,0.00,weatherlink.com 1.10,2013-08-10 11:34:00,
2013-08-10 07:49:00,70.3,64.0,29.78,North,10,0.0,-999.0,80,-99.99,,,0.00,weatherlink.com 1.10,2013-08-10 11:49:00,
2013-08-10 08:04:00,70.9,63.0,29.79,North,350,5.0,-999.0,77,-99.99,,,0.00,weatherlink.com 1.10,2013-08-10 12:04:00,
2013-08-10 08:19:00,71.3,64.0,29.79,North,349,7.0,-999.0,77,-99.99,,,0.00,weatherlink.com 1.10,2013-08-10 12:19:00,
2013-08-10 08:34:00,71.5,64.0,29.79,North,352,3.0,-999.0,76,-99.99,,,0.00,weatherlink.com 1.10,2013-08-10 12:34:00,
2013-08-10 08:49:00,72.7,64.0,29.80,NNW,343,3.0,-999.0,75,-99.99,,,0.00,weatherlink.com 1.10,2013-08-10 12:49:00,
2013-08-10 09:04:00,73.3,63.0,29.80,NE,43,2.0,-999.0,69,-99.99,,,0.00,weatherlink.com 1.10,2013-08-10 13:04:00,
2013-08-10 09:19:00,74.4,63.0,29.80,NE,43,10.0,-999.0,67,-99.99,,,0.00,weatherlink.com 1.10,2013-08-10 13:19:00,
2013-08-10 09:34:00,74.9,61.0,29.80,NNE,19,0.0,-999.0,63,-99.99,,,0.00,weatherlink.com 1.10,2013-08-10 13:34:00,
2013-08-10 09:49:00,75.8,59.0,29.80,NE,50,6.0,-999.0,56,-99.99,,,0.00,weatherlink.com 1.10,2013-08-10 13:49:00,
2013-08-10 10:04:00,76.1,59.0,29.81,NE,48,0.0,-999.0,56,-99.99,,,0.00,weatherlink.com 1.10,2013-08-10 14:04:00,
2013-08-10 10:19:00,77.6,60.0,29.81,NW,311,3.0,-999.0,55,-99.99,,,0.00,weatherlink.com 1.10,2013-08-10 14:19:00,
2013-08-10 10:34:00,77.7,58.0,29.81,NNW,341,5.0,-999.0,50,-99.99,,,0.00,weatherlink.com 1.10,2013-08-10 14:34:00,
2013-08-10 10:49:00,77.7,58.0,29.80,NNE,27,1.0,-999.0,51,-99.99,,,0.00,weatherlink.com 1.10,2013-08-10 14:49:00,
2013-08-10 11:04:00,77.7,56.0,29.80,North,358,5.0,-999.0,48,-99.99,,,0.00,weatherlink.com 1.10,2013-08-10 15:04:00,
2013-08-10 11:19:00,78.5,56.0,29.80,ENE,68,3.0,-999.0,46,-99.99,,,0.00,weatherlink.com 1.10,2013-08-10 15:19:00,
2013-08-10 11:34:00,79.9,58.0,29.80,North,353,13.0,-999.0,48,-99.99,,,0.00,weatherlink.com 1.10,2013-08-10 15:34:00,
2013-08-10 11:49:00,80.1,59.0,29.80,North,3,0.0,-999.0,48,-99.99,,,0.00,weatherlink.com 1.10,2013-08-10 15:49:00,
2013-08-10 12:04:00,80.5,58.0,29.80,NNE,12,0.0,-999.0,47,-99.99,,,0.00,weatherlink.com 1.10,2013-08-10 16:04:00,
2013-08-10 12:19:00,80.9,58.0,29.80,NNE,23,7.0,-999.0,46,-99.99,,,0.00,weatherlink.com 1.10,2013-08-10 16:19:00,
2013-08-10 12:34:00,81.4,59.0,29.80,ESE,108,3.0,-999.0,47,-99.99,,,0.00,weatherlink.com 1.10,2013-08-10 16:34:00,
2013-08-10 12:49:00,82.2,60.0,29.80,NNW,341,2.0,-999.0,47,-99.99,,,0.00,weatherlink.com 1.10,2013-08-10 16:49:00,
2013-08-10 13:04:00,82.6,58.0,29.79,NNE,29,7.0,-999.0,43,-99.99,,,0.00,weatherlink.com 1.10,2013-08-10 17:04:00,
2013-08-10 13:19:00,82.6,59.0,29.79,NNW,329,6.0,-999.0,45,-99.99,,,0.00,weatherlink.com 1.10,2013-08-10 17:19:00,
2013-08-10 13:34:00,82.4,58.0,29.79,ENE,61,6.0,-999.0,44,-99.99,,,0.00,weatherlink.com 1.10,2013-08-10 17:34:00,
2013-08-10 13:49:00,81.8,57.0,29.80,NW,307,5.0,-999.0,43,-99.99,,,0.00,weatherlink.com 1.10,2013-08-10 17:49:00,
2013-08-10 14:04:00,82.2,57.0,29.80,NNE,27,4.0,-999.0,43,-99.99,,,0.00,weatherlink.com 1.10,2013-08-10 18:04:00,
2013-08-10 14:19:00,82.6,57.0,29.80,North,2,0.0,-999.0,41,-99.99,,,0.00,weatherlink.com 1.10,2013-08-10 18:19:00,
2013-08-10 14:34:00,82.0,58.0,29.80,NNE,12,6.0,-999.0,44,-99.99,,,0.00,weatherlink.com 1.10,2013-08-10 18:34:00,
2013-08-10 14:49:00,82.8,57.0,29.79,NNE,23,3.0,-999.0,42,-99.99,,,0.00,weatherlink.com 1.10,2013-08-10 18:49:00,
2013-08-10 15:04:00,81.8,59.0,29.79,North,0,2.0,-999.0,46,-99.99,,,0.00,weatherlink.com 1.10,2013-08-10 19:04:00,
2013-08-10 15:19:00,81.4,59.0,29.79,NNW,335,1.0,-999.0,47,-99.99,,,0.00,weatherlink.com 1.10,2013-08-10 19:19:00,
2013-08-10 15:34:00,81.8,60.0,29.80,NNE,19,0.0,-999.0,47,-99.99,,,0.00,weatherlink.com 1.10,2013-08-10 19:34:00,
2013-08-10 15:49:00,82.0,59.0,29.80,North,353,1.0,-999.0,45,-99.99,,,0.00,weatherlink.com 1.10,2013-08-10 19:49:00,
2013-08-10 16:04:00,81.4,60.0,29.80,North,353,3.0,-999.0,49,-99.99,,,0.00,weatherlink.com 1.10,2013-08-10 20:04:00,
2013-08-10 16:19:00,82.0,59.0,29.80,NNE,26,6.0,-999.0,45,-99.99,,,0.00,weatherlink.com 1.10,2013-08-10 20:19:00,
2013-08-10 16:34:00,83.0,58.0,29.80,NNW,343,5.0,-999.0,43,-99.99,,,0.00,weatherlink.com 1.10,2013-08-10 20:34:00,
2013-08-10 16:49:00,83.0,59.0,29.81,West,276,0.0,-999.0,44,-99.99,,,0.00,weatherlink.com 1.10,2013-08-10 20:49:00,
2013-08-10 17:04:00,83.0,58.0,29.81,WNW,293,0.0,-999.0,43,-99.99,,,0.00,weatherlink.com 1.10,2013-08-10 21:04:00,
2013-08-10 17:19:00,82.2,56.0,29.81,North,353,3.0,-999.0,41,-99.99,,,0.00,weatherlink.com 1.10,2013-08-10 21:19:00,
2013-08-10 17:34:00,81.8,56.0,29.81,North,355,3.0,-999.0,41,-99.99,,,0.00,weatherlink.com 1.10,2013-08-10 21:34:00,
2013-08-10 17:49:00,81.4,55.0,29.81,North,352,0.0,-999.0,40,-99.99,,,0.00,weatherlink.com 1.10,2013-08-10 21:49:00,
2013-08-10 18:04:00,80.7,57.0,29.81,North,10,6.0,-999.0,44,-99.99,,,0.00,weatherlink.com 1.10,2013-08-10 22:04:00,
2013-08-10 18:19:00,80.3,56.0,29.81,NNE,17,0.0,-999.0,43,-99.99,,,0.00,weatherlink.com 1.10,2013-08-10 22:19:00,
2013-08-10 18:34:00,79.2,55.0,29.82,NNW,342,6.0,-999.0,43,-99.99,,,0.00,weatherlink.com 1.10,2013-08-10 22:34:00,
2013-08-10 18:49:00,78.6,53.0,29.82,NNE,12,2.0,-999.0,41,-99.99,,,0.00,weatherlink.com 1.10,2013-08-10 22:49:00,
2013-08-10 19:04:00,78.1,54.0,29.83,NNW,342,4.0,-999.0,43,-99.99,,,0.00,weatherlink.com 1.10,2013-08-10 23:04:00,
2013-08-10 19:19:00,77.4,56.0,29.83,North,349,3.0,-999.0,47,-99.99,,,0.00,weatherlink.com 1.10,2013-08-10 23:19:00,
2013-08-10 19:34:00,76.1,55.0,29.83,NNW,335,0.0,-999.0,48,-99.99,,,0.00,weatherlink.com 1.10,2013-08-10 23:34:00,
2013-08-10 19:49:00,75.4,56.0,29.84,North,3,0.0,-999.0,51,-99.99,,,0.00,weatherlink.com 1.10,2013-08-10 23:49:00,
2013-08-10 20:05:00,74.2,55.0,29.84,North,7,0.0,-999.0,52,-99.99,,,0.00,weatherlink.com 1.10,2013-08-11 00:05:00,
2013-08-10 20:20:00,73.5,56.0,29.85,North,7,0.0,-999.0,54,-99.99,,,0.00,weatherlink.com 1.10,2013-08-11 00:20:00,
2013-08-10 20:35:00,72.8,54.0,29.86,NE,37,0.0,-999.0,52,-99.99,,,0.00,weatherlink.com 1.10,2013-08-11 00:35:00,
2013-08-10 20:50:00,72.1,56.0,29.86,NE,40,0.0,-999.0,58,-99.99,,,0.00,weatherlink.com 1.10,2013-08-11 00:50:00,
2013-08-10 21:05:00,70.6,55.0,29.87,NE,40,0.0,-999.0,59,-99.99,,,0.00,weatherlink.com 1.10,2013-08-11 01:05:00,
2013-08-10 21:20:00,69.9,57.0,29.88,NE,40,0.0,-999.0,63,-99.99,,,0.00,weatherlink.com 1.10,2013-08-11 01:20:00,
2013-08-10 21:35:00,68.4,56.0,29.88,NE,40,0.0,-999.0,64,-99.99,,,0.00,weatherlink.com 1.10,2013-08-11 01:35:00,
2013-08-10 21:50:00,67.4,58.0,29.89,NE,40,0.0,-999.0,71,-99.99,,,0.00,weatherlink.com 1.10,2013-08-11 01:50:00,
2013-08-10 22:05:00,66.4,56.0,29.89,NE,40,0.0,-999.0,70,-99.99,,,0.00,weatherlink.com 1.10,2013-08-11 02:05:00,
2013-08-10 22:20:00,66.3,57.0,29.89,NE,40,0.0,-999.0,73,-99.99,,,0.00,weatherlink.com 1.10,2013-08-11 02:20:00,
2013-08-10 22:35:00,66.0,57.0,29.89,NE,40,1.0,-999.0,72,-99.99,,,0.00,weatherlink.com 1.10,2013-08-11 02:35:00,
2013-08-10 22:50:00,66.3,55.0,29.89,NNE,14,3.0,-999.0,68,-99.99,,,0.00,weatherlink.com 1.10,2013-08-11 02:50:00,
2013-08-10 23:05:00,68.3,53.0,29.89,North,7,1.0,-999.0,58,-99.99,,,0.00,weatherlink.com 1.10,2013-08-11 03:05:00,
2013-08-10 23:20:00,67.4,54.0,29.90,North,7,0.0,-999.0,62,-99.99,,,0.00,weatherlink.com 1.10,2013-08-11 03:20:00,
2013-08-10 23:50:00,66.4,54.0,29.91,North,359,0.0,-999.0,64,-99.99,,,0.00,weatherlink.com 1.10,2013-08-11 03:50:00,